Theta_e
302 302 302 302 302 302 301 302 302 303 302 299 298 299 301 303 303 302 302 302 304 306 308 311 312 312 312 314 314 314 314 314 313 312 311 310 309 306 304 303 302 304 308 314 318 319 319 319 318 318 319 319 319 321 321 320 324 325 325 327 328 329 329 328 328 327 327 328 325 320 319 321 321 320 319 320 319 320 320 321 322 322 323 322 322 324 324 321
301 302 302 302 301 302 302 302 301 302 302 301 300 299 299 301 302 303 303 302 302 304 306 309 311 311 312 313 314 314 314 314 313 312 311 310 309 308 306 304 302 301 302 307 314 318 319 320 319 318 318 319 320 321 322 322 324 325 325 326 327 329 329 328 328 327 326 327 327 322 319 320 321 321 319 320 321 321 321 321 322 322 324 323 322 323 324 323
301 301 301 300 300 301 301 301 301 301 301 302 302 301 299 299 301 303 304 304 303 303 304 306 309 310 311 312 313 314 314 314 313 310 311 313 313 313 310 306 303 301 301 305 312 317 319 320 320 319 319 319 320 321 322 323 323 325 326 325 326 328 328 327 327 327 326 326 327 324 319 318 320 320 320 321 322 321 321 322 322 323 323 323 323 323 324 324
301 300 300 300 300 301 301 301 301 301 301 302 301 301 301 299 300 301 303 304 303 303 303 304 307 309 310 311 312 313 314 314 311 310 314 317 317 316 312 309 307 304 301 304 310 316 318 320 320 320 319 320 321 321 321 323 323 325 325 324 325 327 326 327 327 327 326 325 326 322 318 318 318 318 320 321 321 321 322 322 322 322 323 322 322 323 323 324
300 300 300 300 300 301 301 301 301 301 301 302 301 301 301 300 300 300 302 304 304 304 303 304 306 308 309 310 311 312 313 312 311 313 317 317 316 315 313 311 311 308 304 303 308 314 318 320 321 320 320 320 321 320 321 322 323 323 324 324 326 327 325 326 328 327 326 325 324 320 319 319 318 318 319 321 321 322 323 323 322 321 322 321 320 322 322 323
300 300 300 300 300 300 300 301 301 302 302 302 302 302 301 301 300 300 301 302 304 304 304 304 305 307 308 309 311 312 312 312 313 316 317 315 315 314 313 311 312 312 308 306 308 312 317 319 321 322 321 321 320 319 320 322 322 321 323 325 326 326 325 327 327 327 326 324 323 320 319 319 319 319 319 320 321 323 323 322 322 321 321 321 320 320 321 322
300 300 300 300 300 300 300 301 301 301 302 302 302 302 302 302 301 300 300 301 302 304 305 305 305 306 307 309 310 312 313 313 313 317 317 314 313 312 312 312 312 313 313 313 312 312 317 319 321 322 321 320 320 320 320 322 322 321 321 323 325 325 326 326 326 326 326 324 323 322 320 320 320 320 319 319 321 321 322 321 321 321 321 320 320 320 320 320
299 299 300 300 300 300 300 301 300 301 302 302 302 302 302 302 302 301 300 301 302 303 304 305 305 305 306 308 310 312 312 312 311 314 314 312 312 312 312 312 312 312 313 316 317 315 317 321 322 321 320 320 319 320 321 320 321 321 321 323 323 323 325 326 325 325 324 323 324 323 323 324 321 320 320 320 321 321 321 321 321 321 320 321 320 320 320 319
299 299 299 300 300 301 301 301 301 301 301 302 302 302 302 302 302 302 302 302 302 303 304 305 305 305 306 307 310 312 312 311 310 311 311 311 311 311 311 311 311 313 313 315 317 317 318 321 322 321 320 321 319 320 321 319 318 321 322 323 323 323 323 324 324 324 323 323 324 324 326 326 322 320 322 322 322 321 321 321 321 321 321 321 321 321 320 319
301 300 300 300 300 300 301 301 301 301 302 302 302 302 302 302 302 302 302 302 302 303 304 305 305 305 306 307 309 311 312 311 311 311 311 311 311 311 311 309 309 311 313 314 316 319 319 320 322 321 320 320 319 320 321 319 319 321 322 322 323 323 323 323 323 324 324 324 324 324 326 326 322 321 324 324 323 322 322 321 321 321 321 321 322 321 320 320
302 302 301 301 300 300 300 301 301 301 302 302 302 302 302 302 302 302 302 303 303 303 304 305 305 305 306 308 309 310 311 311 311 311 310 310 312 312 312 311 310 309 309 311 314 317 319 320 321 322 321 320 320 319 320 320 320 321 321 321 322 322 323 323 323 323 323 324 324 325 326 325 321 321 325 325 324 323 322 322 321 321 321 322 322 321 320 320
303 303 302 302 301 301 300 301 301 301 302 302 302 302 302 302 302 302 302 302 303 303 304 304 305 305 306 307 308 309 309 310 311 312 312 312 313 313 313 312 312 311 309 308 311 315 318 319 321 322 321 320 320 319 319 320 320 320 320 320 321 321 321 322 323 323 323 324 325 324 324 325 323 323 325 326 325 324 322 322 322 321 321 323 322 322 321 320
303 303 303 303 302 302 301 301 301 301 301 302 302 302 302 302 302 302 302 302 303 303 304 304 304 305 306 307 308 308 308 308 309 310 311 312 312 312 312 312 312 313 311 308 309 313 318 319 320 322 321 320 321 320 319 320 319 320 319 319 319 319 319 321 323 323 323 323 324 324 322 324 325 325 326 326 326 325 324 323 323 322 322 323 323 323 322 322
303 303 304 304 303 303 303 302 302 301 301 301 302 302 302 302 302 302 302 302 302 303 303 304 304 305 306 307 307 307 307 308 308 309 310 310 311 311 311 312 313 313 313 311 308 311 317 320 320 321 322 322 322 322 321 320 318 318 319 319 318 318 318 320 322 323 322 323 324 323 321 322 324 326 326 326 326 325 325 325 324 324 323 323 323 323 323 323
303 303 303 304 304 303 303 303 303 302 302 301 302 302 302 302 302 302 302 302 302 302 303 304 304 304 306 307 306 305 305 306 306 307 308 309 310 310 311 312 313 313 313 312 310 311 316 320 321 321 321 322 322 322 321 320 319 318 319 320 318 318 318 320 322 323 321 322 324 323 322 322 323 326 327 326 326 325 326 327 326 325 325 324 324 324 324 325
302 302 302 303 303 303 303 303 303 303 303 302 302 302 302 302 302 302 302 302 302 302 302 303 303 304 306 306 306 305 305 306 306 306 307 308 308 309 310 311 312 313 313 312 311 313 316 319 321 321 321 322 321 322 322 321 320 319 320 321 321 319 318 318 320 323 321 321 323 322 321 322 323 325 326 326 325 325 326 327 328 327 326 327 326 326 326 326
302 302 302 302 302 302 303 303 303 303 303 303 302 302 302 302 302 302 302 302 302 302 302 303 304 304 306 306 306 307 307 307 307 307 307 308 309 309 310 311 312 312 313 312 311 314 317 319 320 321 321 321 321 321 322 321 321 321 320 320 321 320 318 317 318 321 322 322 322 322 321 322 323 324 325 325 324 325 326 327 328 328 327 327 328 328 327 328
302 302 302 301 301 301 302 302 303 303 304 303 303 303 302 302 302 302 302 302 302 302 302 303 303 304 305 306 306 307 308 307 308 308 308 309 309 310 311 311 312 312 313 313 311 314 318 319 320 321 321 320 320 321 321 319 319 321 321 321 320 320 319 318 318 319 321 322 322 323 323 322 322 323 325 325 324 324 325 327 327 328 328 327 327 328 328 328
302 302 302 301 300 300 301 301 302 303 303 303 303 303 303 302 302 301 301 302 303 303 302 304 304 303 305 306 306 307 307 307 307 307 308 309 309 310 311 311 311 312 313 313 312 315 318 318 319 320 321 320 320 319 319 318 317 319 320 321 321 320 319 319 318 318 320 321 322 323 323 322 322 322 323 325 324 324 325 326 327 328 328 328 327 327 328 328
301 301 301 301 300 300 300 301 301 302 303 303 303 303 303 303 302 302 302 302 303 302 302 303 303 304 305 306 306 306 307 307 307 307 307 307 308 309 310 310 311 312 313 312 313 316 318 318 318 318 319 319 319 318 318 318 317 317 318 319 320 320 320 318 317 317 319 321 321 321 322 321 322 322 322 324 324 323 324 325 326 327 327 327 327 327 327 328
301 301 300 299 299 299 300 300 301 302 303 303 304 304 304 303 302 302 303 302 302 301 302 302 302 303 304 304 305 306 307 308 307 307 308 308 308 308 309 309 311 311 312 313 313 315 317 316 316 316 316 317 318 318 318 319 318 317 317 318 318 319 319 318 317 317 318 320 320 320 321 321 321 322 323 323 324 324 325 325 326 326 326 326 326 326 327 327
300 300 300 298 298 299 300 301 301 302 303 303 303 304 304 303 302 302 302 302 302 301 301 301 302 303 303 303 304 304 306 307 307 307 307 307 308 309 310 309 310 311 312 312 313 313 315 315 314 314 316 316 318 319 319 319 319 318 318 318 318 318 318 318 317 317 316 318 320 320 320 320 320 322 323 324 324 324 325 325 325 326 326 325 326 326 326 327
299 299 298 298 297 299 300 301 301 302 302 303 303 303 303 303 303 302 302 302 303 302 301 301 301 301 302 302 303 303 305 306 306 307 306 307 308 308 310 310 309 311 311 311 312 311 312 313 312 314 316 316 318 319 319 319 319 319 319 319 318 318 318 317 317 317 316 318 319 319 320 319 319 320 322 323 324 324 325 324 325 325 325 325 325 325 325 326
298 298 298 298 298 299 301 301 301 301 301 302 303 303 303 303 303 302 302 302 302 302 301 300 301 301 301 301 302 303 305 305 305 306 306 307 308 308 309 310 310 310 311 311 312 311 311 313 314 314 314 316 318 319 319 320 320 319 320 319 318 318 317 316 317 316 317 317 317 318 319 319 318 319 319 321 322 323 323 324 324 324 323 324 324 324 324 325
299 299 299 298 299 301 301 302 302 301 301 302 302 303 303 304 303 303 302 302 301 301 301 301 301 302 301 301 302 303 305 305 305 304 305 307 308 307 308 309 309 310 310 310 311 311 311 312 314 315 315 315 317 318 319 320 320 319 320 319 318 318 317 316 316 316 317 318 318 318 320 320 318 318 318 319 319 320 322 322 323 324 324 323 323 323 324 324
300 300 300 299 300 302 302 302 302 302 302 302 302 302 303 303 303 303 302 301 300 301 302 302 302 303 302 303 303 303 304 305 304 302 303 306 307 307 309 309 309 309 310 310 311 311 311 310 311 314 316 317 316 316 317 319 320 320 319 319 318 319 318 317 317 317 317 318 318 317 319 320 319 318 318 318 319 318 319 321 321 323 323 323 324 323 324 324
301 301 300 300 301 301 302 303 302 302 302 302 301 302 302 304 303 301 301 300 300 302 302 302 303 302 302 304 304 303 304 304 304 303 303 304 306 308 309 309 309 309 309 310 311 311 311 310 310 310 314 317 317 316 316 317 320 320 318 318 319 319 319 319 318 318 318 318 317 317 318 320 319 318 318 318 318 318 318 319 320 321 322 322 323 323 323 323
301 301 300 300 300 301 302 302 302 303 302 302 301 301 303 304 302 300 299 299 300 301 302 303 303 302 303 305 305 304 304 304 304 305 304 304 307 308 308 309 309 309 309 310 311 311 310 310 310 309 311 313 315 316 316 316 318 319 318 318 319 319 318 319 318 318 318 319 319 317 318 319 319 318 318 317 317 317 318 318 319 320 321 320 321 321 320 320
301 300 300 299 300 301 302 302 303 303 302 302 301 301 303 302 300 299 298 299 299 298 302 304 303 304 305 306 305 304 304 303 304 307 306 305 307 308 308 309 309 309 309 309 310 310 311 312 310 309 310 309 311 314 316 317 317 317 318 318 318 319 319 318 319 319 320 321 320 318 318 318 318 318 317 318 317 317 318 317 318 319 319 319 319 319 319 318
300 299 299 299 300 301 302 302 302 302 302 302 302 302 303 301 299 299 299 299 298 298 302 303 303 305 306 305 305 305 304 304 306 307 307 307 308 308 308 309 309 309 309 309 309 310 311 312 312 311 311 310 309 312 316 317 316 315 317 318 318 319 319 319 320 320 321 322 320 318 318 318 319 318 317 318 318 317 317 317 318 318 318 318 318 318 318 317
299 299 300 300 300 300 301 302 302 302 303 302 302 302 302 299 298 300 300 299 298 299 302 303 304 306 305 305 306 305 305 305 307 307 308 308 308 308 308 308 308 308 309 310 309 309 310 310 312 313 314 314 311 311 315 318 316 315 316 319 320 319 319 320 320 320 322 323 321 319 318 318 319 319 317 317 317 317 317 317 317 317 317 317 317 317 317 317
299 299 300 300 300 300 300 301 301 302 302 302 302 302 301 299 299 300 299 298 298 300 302 303 305 306 305 305 305 305 305 305 306 307 307 307 307 308 307 307 308 308 309 310 310 310 310 309 310 312 313 315 314 312 314 316 316 316 317 318 320 320 320 321 321 321 322 322 321 319 319 320 319 318 317 317 316 316 316 316 316 317 317 316 316 316 316 317
298 299 299 299 300 300 300 300 301 301 302 302 302 301 300 299 300 300 298 297 298 300 302 304 305 305 305 305 305 305 305 305 306 306 307 307 307 308 307 307 309 308 308 309 310 309 310 309 310 310 311 314 315 313 314 315 315 315 316 318 319 320 321 322 321 321 322 321 320 318 319 320 319 317 317 316 316 317 316 317 317 316 316 316 315 316 316 316
298 298 298 299 299 299 299 300 301 301 302 302 300 300 300 300 301 301 299 297 298 300 303 304 304 304 304 305 305 305 305 305 305 306 306 306 306 307 307 307 308 307 306 308 310 309 310 310 310 309 309 312 314 313 313 313 314 314 315 316 318 319 320 321 319 321 321 320 319 319 320 320 319 317 318 316 317 318 317 317 317 316 316 315 316 316 316 316
298 298 299 299 299 299 300 301 301 301 302 301 300 300 301 301 301 300 299 298 298 301 304 304 303 304 304 304 304 305 305 305 305 306 306 306 306 307 307 307 308 307 306 308 310 309 309 310 310 310 310 311 312 314 314 313 313 314 314 315 316 318 320 320 319 319 320 320 319 319 320 319 317 317 317 315 316 316 317 318 317 317 317 316 315 316 316 317
299 299 300 300 300 300 300 301 301 301 301 301 300 301 302 302 300 300 300 299 299 301 303 302 303 303 303 304 304 304 304 304 304 305 305 306 306 306 306 307 308 307 307 308 309 309 309 309 309 310 310 310 310 313 315 314 313 314 315 315 314 315 317 319 319 318 319 320 320 319 319 318 317 318 317 316 316 315 316 316 317 318 317 317 316 316 316 317
299 300 300 300 300 300 300 301 301 302 301 300 301 301 301 301 300 300 300 299 299 301 301 301 301 302 302 303 304 304 304 304 304 304 305 305 305 306 306 306 308 308 307 307 308 308 309 309 308 308 310 310 310 312 315 315 314 315 315 314 313 312 314 315 318 319 319 319 320 319 319 319 318 319 317 316 317 316 316 316 316 317 316 316 316 316 316 316
300 300 300 299 300 299 299 300 301 302 301 300 301 301 300 300 299 299 300 300 299 300 300 300 300 301 301 302 303 305 304 304 304 304 304 305 305 306 306 306 307 308 308 308 307 307 308 308 308 308 309 310 311 312 314 315 314 314 314 314 313 313 313 313 315 318 318 320 321 320 319 319 319 319 316 316 317 317 317 316 316 316 316 316 316 316 316 315
300 299 299 299 300 299 299 299 300 301 300 300 300 300 299 300 299 299 300 300 300 300 299 299 299 300 301 302 303 304 304 304 305 304 304 305 305 307 307 306 307 308 309 308 307 307 307 308 308 307 308 310 312 311 311 313 313 313 313 313 312 313 314 314 314 315 317 319 320 321 321 320 319 318 317 317 317 316 317 317 316 317 317 317 316 316 316 314
299 299 299 299 300 300 299 299 299 300 300 299 300 299 298 299 300 299 300 300 301 300 299 300 299 299 300 302 303 304 303 304 305 305 304 305 305 306 307 307 307 308 309 308 307 307 306 306 307 307 307 310 312 311 310 311 312 313 314 313 312 312 313 314 315 315 315 316 318 320 321 320 318 317 317 317 317 316 316 316 317 318 318 315 315 315 315 315
299 299 299 299 299 300 299 299 299 300 299 299 299 299 299 300 300 300 300 300 300 300 300 300 300 299 300 301 302 303 303 304 305 305 304 305 305 304 306 307 307 306 308 308 307 307 306 306 306 308 308 310 312 311 310 312 312 312 313 312 312 312 313 313 315 316 316 316 316 317 319 319 315 313 314 316 315 315 315 315 315 317 315 313 313 314 315 315
299 299 299 299 299 299 299 299 299 299 299 299 299 299 300 301 301 300 300 300 300 300 300 300 301 300 300 300 301 303 303 304 305 305 304 305 305 304 305 306 305 304 305 306 307 306 306 306 306 308 309 310 311 309 307 309 312 313 312 312 312 312 312 312 313 315 317 317 317 316 317 318 314 311 312 314 313 312 313 313 313 314 314 313 313 314 314 315
298 298 299 299 299 299 299 298 298 298 298 298 298 298 298 299 300 299 299 300 300 300 300 300 301 300 300 300 301 303 303 303 304 305 304 305 305 305 306 305 304 304 304 305 306 306 306 306 306 307 307 308 308 309 307 306 309 312 312 312 312 311 312 312 311 313 315 316 317 316 317 318 314 311 311 312 311 311 311 311 312 314 314 314 314 314 314 314
298 298 298 299 299 299 298 297 297 297 297 298 298 298 298 298 299 299 299 300 300 301 301 301 301 301 301 302 301 302 303 302 303 304 304 304 304 304 304 304 303 303 305 306 306 306 306 306 306 307 307 307 308 309 309 308 309 310 311 312 312 311 311 312 311 311 312 313 315 316 316 317 316 313 311 312 312 312 312 311 311 313 313 313 314 314 314 314
297 297 298 298 299 299 298 297 297 297 297 297 297 297 297 297 298 299 299 300 300 300 301 301 301 301 301 302 302 302 302 302 302 303 303 303 304 303 303 303 303 303 304 305 306 306 306 307 307 307 308 308 308 309 309 309 310 310 311 312 313 312 312 311 311 311 311 311 312 313 313 314 315 315 314 314 314 314 314 313 312 312 313 313 313 314 314 314
297 297 297 298 298 299 298 298 298 297 297 297 297 297 296 296 298 298 299 299 299 299 300 301 301 301 301 301 301 301 302 302 302 302 302 303 304 304 303 303 304 304 304 305 306 306 306 307 307 307 308 307 308 309 309 310 311 311 311 312 312 313 312 312 311 310 310 311 310 311 311 312 312 312 312 313 313 312 313 314 314 313 313 313 313 313 314 315
297 296 296 296 297 298 298 298 298 298 298 297 297 298 298 297 298 298 299 300 300 299 300 300 300 301 301 301 301 301 301 302 302 302 302 302 304 305 304 303 304 304 305 305 306 306 306 307 307 307 308 308 307 309 310 310 310 311 311 311 312 312 312 312 312 311 310 310 310 310 311 311 310 309 310 310 310 311 313 316 315 313 313 313 313 313 314 315
297 296 296 296 296 296 297 297 298 298 298 298 298 299 299 298 298 298 299 300 300 300 300 300 300 301 301 301 301 301 301 302 302 302 302 302 303 304 304 304 304 304 304 305 305 305 306 307 307 307 308 308 308 309 310 310 310 310 311 311 312 312 312 312 312 311 311 311 310 311 312 311 309 308 309 310 310 311 314 315 314 313 313 313 313 313 314 315
298 297 297 297 297 296 297 297 297 298 298 298 298 299 299 299 299 299 299 300 300 300 300 300 301 301 301 302 302 301 302 302 302 302 303 303 303 304 303 304 304 304 304 305 304 304 305 306 308 307 307 307 308 308 308 309 310 310 310 311 311 312 312 312 312 312 312 312 312 312 312 311 310 309 309 310 311 312 314 314 312 312 312 313 313 313 313 314
297 298 297 297 297 297 297 297 297 298 298 298 299 299 299 299 299 299 299 300 300 301 300 300 301 301 301 301 301 301 302 302 302 302 303 303 303 303 303 304 305 304 304 304 304 303 304 306 308 307 307 307 307 308 308 308 308 309 309 310 310 311 312 312 312 312 312 312 312 312 312 311 310 310 310 311 311 312 313 312 312 312 312 312 312 312 311 311
297 297 297 297 297 298 298 298 298 298 299 299 299 300 300 300 300 300 300 300 301 301 301 301 301 301 301 301 300 301 301 302 302 302 302 303 303 303 304 304 305 305 304 304 304 304 304 306 307 307 307 307 307 308 308 308 308 308 308 309 309 310 311 311 312 312 312 312 312 312 312 311 310 310 311 311 310 310 311 311 312 312 312 312 312 311 312 311
296 297 297 297 298 298 299 299 299 299 300 300 300 300 300 301 300 300 300 301 301 301 301 301 301 301 301 301 301 301 301 301 302 302 303 302 303 303 304 304 305 305 305 305 305 304 304 306 306 307 307 308 308 308 308 308 308 308 308 308 308 309 310 311 311 312 312 312 312 312 312 311 311 311 311 311 310 310 310 311 311 311 311 311 311 311 312 312
Wind_Speed
13 13 13 13 12 13 12 13 13 13 14 14 13 14 14 13 13 14 16 19 19 19 18 15 13 13 13 14 15 16 16 18 19 18 19 19 19 16 12 11 12 14 16 15 11 10 10 10 12 12 11 8 6 5 5 5 6 6 3 5 5 5 4 3 5 3 1 1 3 4 8 9 6 7 8 5 8 8 7 12 12 13 15 12 7 6 9 14
13 14 14 14 13 14 14 13 13 13 14 14 14 13 13 14 13 12 13 16 19 20 19 17 14 13 13 14 15 16 16 17 19 18 17 16 16 14 11 12 13 15 17 18 15 12 10 9 8 8 8 7 6 5 5 5 8 7 4 5 6 6 3 1 4 4 3 2 1 2 6 11 7 5 9 7 7 8 7 10 12 12 15 17 13 9 9 13
13 14 14 14 14 14 14 14 13 13 13 14 14 13 13 14 14 14 13 13 16 18 19 18 16 14 13 14 15 15 16 18 18 14 10 9 10 9 8 9 12 15 17 18 16 13 10 9 7 5 5 6 6 6 5 6 8 8 5 6 7 6 4 4 6 7 7 5 2 3 4 9 9 6 8 8 5 7 10 10 11 13 16 19 18 14 11 13
14 14 14 15 14 14 14 13 13 13 12 13 14 14 13 13 14 15 14 13 13 15 18 18 17 15 14 14 14 13 15 16 12 5 2 4 6 6 4 3 5 10 15 17 16 13 9 8 7 5 5 6 6 6 6 8 7 5 7 9 7 6 6 8 10 9 9 8 4 2 3 6 9 9 8 7 6 7 12 14 14 15 15 19 20 18 15 14
14 14 14 15 15 14 14 13 13 12 12 13 13 13 14 13 13 14 15 14 13 14 15 17 17 15 15 14 12 11 12 9 2 4 7 7 7 7 5 5 7 5 9 14 14 12 9 7 6 5 6 5 6 6 7 10 8 5 8 12 6 5 7 9 10 10 10 9 5 3 4 5 7 10 11 10 9 6 8 12 15 16 14 15 18 19 20 17
14 14 14 14 14 14 14 13 13 12 12 12 12 12 13 13 13 14 15 14 13 13 13 15 15 15 15 14 12 10 7 4 5 11 10 9 8 9 9 9 10 10 4 9 10 10 9 8 8 6 5 5 7 7 5 6 7 7 9 10 7 6 9 7 6 11 11 9 7 5 4 5 7 8 10 15 16 9 6 8 9 12 14 15 15 18 21 20
14 14 14 14 14 13 13 13 13 12 12 11 11 12 12 12 12 12 14 14 14 14 13 13 13 15 16 14 13 9 9 11 8 8 1 6 9 8 8 9 8 10 8 3 6 9 8 8 9 7 6 4 6 7 3 3 5 8 8 7 6 7 11 9 5 9 11 9 6 4 4 6 8 7 7 16 23 17 13 10 6 7 9 12 15 16 18 19
14 14 14 13 13 13 13 13 12 12 12 11 11 11 11 11 11 11 12 13 14 14 13 12 12 14 16 14 12 10 15 20 17 14 15 17 16 13 12 10 6 8 8 4 3 7 8 8 9 8 7 4 5 6 3 4 7 9 10 6 4 6 10 11 8 8 9 8 6 4 5 6 8 6 5 15 21 20 20 16 11 9 7 9 14 16 16 18
13 13 13 13 13 13 12 12 12 12 12 11 11 11 11 11 11 11 11 12 13 13 13 12 12 14 15 15 13 11 17 22 19 18 18 16 13 10 10 9 8 7 6 5 2 6 8 7 9 8 6 3 5 5 4 6 7 7 8 6 6 7 8 10 11 11 9 8 5 6 10 8 8 7 9 18 19 17 19 20 19 16 13 12 12 16 16 16
13 12 12 12 12 12 12 12 12 12 11 11 11 11 11 11 11 11 11 11 12 12 12 12 12 13 13 14 14 11 14 18 14 10 8 7 5 7 6 5 6 6 5 6 3 4 8 7 8 8 6 4 6 5 5 6 3 2 3 7 9 11 11 9 10 11 9 9 9 9 12 8 6 7 8 12 13 16 17 18 21 20 18 15 13 15 16 16
12 12 12 12 12 12 12 12 12 12 11 11 11 11 11 11 11 11 11 10 11 11 12 12 13 14 13 14 16 13 11 12 8 5 5 5 4 7 7 6 7 7 7 6 4 3 7 8 6 6 5 4 5 4 5 6 3 2 3 7 9 11 13 11 11 12 8 8 12 13 13 6 5 6 11 10 6 12 16 17 18 20 19 15 13 15 17 17
12 12 12 12 12 12 12 12 12 12 11 11 11 11 10 10 11 11 11 11 11 11 12 13 13 14 15 17 21 21 18 15 11 9 9 9 10 10 11 12 12 11 9 7 5 3 4 8 8 7 4 3 5 3 3 6 4 3 3 7 9 8 12 14 14 13 9 7 8 8 10 11 9 10 17 19 14 11 14 17 16 18 18 15 12 14 16 17
13 12 12 13 12 12 12 12 12 12 12 12 11 11 10 10 10 11 11 11 11 12 12 13 13 14 14 16 19 20 20 20 20 18 17 16 16 16 17 17 15 13 10 8 6 3 4 7 11 11 6 3 4 2 1 1 3 4 4 6 7 7 12 14 14 12 12 10 7 7 8 13 13 16 21 21 20 15 13 16 17 18 19 17 15 14 15 16
14 13 12 13 13 13 12 12 12 11 11 12 12 11 11 11 10 11 11 11 12 12 12 13 13 14 15 16 16 17 18 18 21 22 20 20 19 19 19 17 15 15 12 10 8 5 5 7 11 14 10 8 5 3 3 1 2 4 4 5 6 8 8 9 11 11 12 10 11 10 10 12 11 18 25 23 22 18 14 16 17 19 21 20 19 17 17 17
13 12 11 12 13 13 13 13 12 12 11 11 11 12 12 12 11 11 11 11 12 12 12 13 13 13 15 18 18 18 18 19 23 23 20 20 19 18 17 15 12 11 10 10 9 6 7 7 10 12 10 10 8 6 4 3 3 3 5 6 8 10 6 5 9 14 14 9 13 13 9 10 11 13 21 23 24 20 17 18 17 18 21 21 21 20 20 19
12 12 12 12 13 13 14 14 14 13 13 12 11 12 13 12 12 12 12 11 11 11 11 12 13 12 11 14 15 16 15 16 19 22 22 22 21 20 19 16 11 8 9 10 9 8 8 8 10 13 9 8 8 7 5 5 5 5 8 8 8 10 9 4 6 13 17 9 13 17 10 6 8 10 14 18 23 21 19 21 20 19 21 22 23 22 22 21
12 12 12 13 14 14 15 15 14 14 13 13 11 12 13 12 12 12 12 11 11 11 10 11 11 11 11 11 10 10 9 9 10 14 18 17 17 18 18 18 15 12 11 11 10 9 9 9 7 9 9 7 7 7 7 9 9 8 8 9 9 9 8 7 3 6 13 10 11 16 14 10 4 4 10 14 19 19 19 23 23 22 22 24 26 25 25 24
13 12 13 14 15 16 16 16 15 15 14 13 12 12 12 12 12 12 13 12 11 10 9 11 9 8 10 11 10 9 8 7 6 9 13 12 12 14 14 14 14 11 9 9 10 9 10 9 6 5 6 8 8 9 11 9 8 10 10 9 10 8 9 10 3 3 8 9 10 12 15 17 9 3 7 11 16 18 20 24 25 24 24 25 28 30 29 28
15 14 14 15 16 17 16 16 16 16 15 13 13 12 11 12 12 13 13 11 9 7 5 7 10 6 2 1 3 6 9 11 11 11 13 11 10 11 11 10 10 10 8 6 7 10 10 7 6 6 7 11 12 14 15 5 1 4 9 9 9 9 9 8 2 1 5 7 10 13 14 16 15 12 13 13 15 17 20 23 24 25 24 23 26 31 33 33
17 16 16 17 18 18 17 16 16 16 15 13 12 11 10 9 7 8 10 10 12 12 11 10 14 14 8 3 4 3 2 4 10 14 15 14 12 10 9 9 9 10 10 9 7 9 11 8 7 10 11 16 17 17 18 10 4 4 5 8 10 10 9 6 4 2 3 6 10 15 16 16 16 15 19 20 15 14 17 20 20 21 21 22 25 31 35 36
18 19 19 19 19 19 19 17 16 15 15 13 11 10 9 7 4 3 4 7 11 14 17 17 17 20 19 15 10 5 3 4 5 9 11 13 13 10 9 11 9 9 11 12 8 6 8 8 11 16 16 16 16 16 17 16 14 9 6 6 8 11 10 5 6 5 4 5 9 11 14 17 17 13 17 23 17 14 16 18 20 21 21 23 26 32 35 36
20 21 21 20 19 19 19 17 16 15 14 14 12 12 12 10 9 8 6 7 12 15 17 18 19 23 25 23 19 14 10 7 9 11 10 8 11 11 9 11 10 9 10 11 8 7 7 10 17 20 15 14 14 15 17 18 18 14 9 8 7 7 7 4 5 5 4 4 7 9 12 14 15 13 14 19 21 19 17 18 21 21 20 20 22 28 34 36
20 22 21 20 19 18 18 18 17 16 15 14 13 13 15 15 13 12 9 7 12 17 19 19 21 24 26 25 24 21 15 10 11 14 13 9 10 12 10 10 10 10 10 11 12 10 9 11 18 19 14 13 14 13 16 17 14 13 11 11 10 6 5 5 6 7 6 5 3 4 9 11 12 12 12 17 23 23 20 20 21 22 21 20 21 25 30 33
20 20 21 20 19 18 17 18 18 17 16 14 13 13 14 15 13 10 7 5 8 12 15 19 20 23 25 23 20 20 19 16 13 14 15 12 11 9 9 10 10 10 10 14 17 15 13 10 6 11 15 14 13 12 14 13 11 14 15 14 13 9 7 5 2 4 6 6 3 2 8 10 12 14 13 14 18 20 24 24 22 25 29 29 28 30 32 33
20 20 20 20 19 17 16 19 20 17 14 13 13 13 12 12 12 8 3 3 6 6 9 12 13 16 21 20 16 16 16 16 19 20 16 14 13 8 7 8 8 10 13 16 16 14 17 13 3 6 12 14 15 14 15 13 9 12 16 17 17 14 11 7 2 2 6 7 7 7 9 9 11 16 15 13 13 17 20 21 22 26 29 32 34 37 38 38
21 20 20 20 19 16 16 18 17 14 12 10 10 10 10 12 13 9 4 1 5 4 2 3 6 5 7 11 13 12 9 12 22 27 22 17 17 12 7 6 6 9 11 12 10 8 12 14 9 7 9 14 17 15 15 14 10 10 12 15 18 16 14 11 7 6 8 7 3 6 10 9 7 11 14 14 15 19 18 17 24 27 25 27 32 36 40 41
22 21 21 20 18 16 16 16 15 14 11 9 8 6 9 13 13 8 4 2 5 2 3 3 4 1 0 7 14 13 3 4 12 23 30 26 19 16 10 6 6 5 4 5 6 5 7 10 11 10 10 11 12 12 14 15 11 8 6 10 15 17 17 15 12 10 9 7 2 4 8 10 9 11 12 13 15 18 18 17 22 24 23 24 25 30 36 41
22 21 20 19 17 15 17 18 18 17 12 10 8 4 8 13 12 8 3 2 2 2 2 3 5 1 0 7 17 13 2 5 5 12 27 29 19 15 10 10 10 6 6 8 7 3 3 8 10 11 12 9 9 10 11 13 13 7 3 7 12 15 17 15 13 12 9 8 8 8 8 8 12 11 9 12 15 17 18 18 17 18 20 21 22 28 36 41
22 22 21 18 17 16 17 20 20 19 14 10 7 5 10 13 13 7 1 2 1 2 2 3 4 2 4 10 16 12 3 6 1 4 14 24 22 16 8 10 13 9 9 12 13 7 1 4 7 10 11 10 12 13 10 12 12 4 4 7 10 11 14 14 12 11 8 8 11 13 12 10 12 10 9 10 14 17 16 14 13 15 20 24 26 33 38 40
23 22 21 18 18 16 18 20 21 20 16 11 7 8 11 13 9 3 2 2 1 3 3 3 4 6 10 10 10 13 9 6 2 1 9 17 21 19 8 7 9 6 8 12 16 12 1 2 2 6 8 9 13 12 8 11 7 2 2 8 9 7 8 9 9 7 8 8 11 15 17 15 12 9 9 10 12 14 12 11 10 11 17 26 30 33 35 35
23 22 20 18 18 17 18 19 18 17 17 13 9 12 15 10 3 3 4 1 2 3 5 3 4 8 12 9 7 11 11 8 4 4 7 8 11 14 8 5 5 3 6 9 12 13 7 4 3 3 4 6 10 8 3 5 5 2 3 7 6 5 3 4 4 5 7 8 10 16 19 18 16 10 6 8 10 11 12 13 11 8 14 23 28 30 33 34
23 20 18 18 18 19 19 18 16 14 15 15 15 18 14 4 2 4 1 2 1 3 3 1 3 6 10 9 6 8 9 7 5 6 7 7 6 9 10 8 6 4 7 7 10 11 10 10 7 4 3 5 9 8 4 4 7 7 6 6 7 6 4 5 5 5 7 7 6 13 17 15 16 15 11 12 9 6 8 9 11 9 11 18 25 27 29 31
21 19 17 16 17 19 18 16 16 15 14 16 20 18 8 1 4 4 3 3 0 1 3 3 4 5 7 7 4 7 8 5 4 6 8 8 7 9 13 13 9 6 4 6 10 8 5 9 11 8 5 7 10 8 7 7 9 12 9 7 8 7 7 9 8 5 8 8 3 8 13 10 10 13 15 20 18 15 15 11 11 14 12 16 22 24 25 27
19 18 17 15 15 17 16 16 18 17 17 20 19 10 3 3 4 5 7 5 2 3 3 5 5 6 5 6 3 5 7 5 3 5 6 6 6 8 11 13 12 7 1 4 9 8 7 7 10 12 9 11 13 12 9 6 7 11 9 8 8 7 6 7 8 8 9 6 1 6 9 7 7 5 3 9 15 20 24 21 20 22 20 20 21 21 24 27
16 14 12 10 11 11 12 15 17 16 19 22 12 3 5 5 3 3 4 3 0 1 3 5 5 4 3 5 4 5 5 4 4 5 6 6 7 8 9 10 14 10 5 6 5 6 11 8 8 17 15 13 15 14 10 6 5 8 8 8 10 7 5 5 5 5 5 4 3 5 6 5 7 7 2 1 3 8 15 17 21 23 24 26 27 28 31 32
12 8 7 9 8 8 9 11 15 17 22 20 7 4 7 3 1 1 1 1 2 3 5 2 2 2 2 3 4 6 5 2 3 3 5 7 9 9 9 8 12 14 11 9 4 3 10 6 5 13 13 11 14 14 13 10 6 5 8 8 4 1 2 6 6 2 3 8 6 7 7 7 8 11 11 9 5 4 7 9 14 18 20 23 27 32 35 35
13 11 11 11 10 9 6 7 16 24 26 17 5 6 4 1 2 2 2 1 1 4 5 3 2 2 3 3 4 6 6 3 4 3 3 5 6 8 9 9 11 16 16 13 6 2 6 5 2 7 9 8 9 11 15 14 6 3 7 7 3 3 1 3 5 2 3 8 7 8 12 11 8 7 7 9 12 12 11 11 12 11 10 14 23 31 32 32
12 12 12 13 13 10 5 6 20 30 24 11 6 6 1 1 1 3 3 2 2 2 4 4 3 3 3 3 3 4 6 4 4 5 3 3 4 6 10 9 9 15 20 19 10 2 2 5 2 2 2 3 4 7 12 11 4 0 3 3 2 3 5 5 5 4 5 6 5 9 13 11 10 9 4 6 11 12 12 12 11 9 9 15 26 32 29 25
9 9 11 14 13 10 6 6 20 26 14 3 5 4 1 1 1 2 3 1 2 0 3 3 2 3 4 3 1 4 7 5 5 5 4 4 4 4 7 8 8 13 21 19 10 3 3 4 4 0 2 2 5 7 9 9 4 1 2 3 2 3 5 6 7 6 6 7 5 6 10 8 9 12 10 8 7 7 8 9 10 11 13 15 19 23 21 17
8 6 9 11 11 9 6 9 15 12 3 1 2 1 0 1 2 3 3 3 2 1 3 2 1 3 4 3 2 3 6 6 6 5 4 5 5 4 6 9 8 10 17 19 12 7 3 4 5 1 2 2 5 8 11 12 9 6 6 9 7 4 2 3 5 5 5 7 7 6 6 5 4 6 10 11 6 4 6 7 8 8 6 5 8 11 12 11
8 4 6 9 8 8 8 10 9 2 1 1 2 1 0 1 3 4 4 4 4 4 3 3 3 4 4 5 4 3 4 5 6 6 5 5 6 5 5 7 3 2 7 12 10 8 4 4 6 3 2 5 7 6 6 7 9 10 9 10 11 9 6 5 6 4 3 6 7 7 7 5 2 0 3 6 4 2 4 5 7 7 6 7 7 8 10 10
11 4 5 7 5 6 7 5 3 1 1 0 1 0 1 3 2 4 5 3 4 4 3 2 4 5 5 5 4 3 4 4 5 6 6 6 10 8 5 7 5 4 2 5 8 10 6 2 5 6 5 6 4 0 2 4 7 11 10 8 9 9 9 9 9 6 5 7 7 7 9 6 1 0 1 2 3 4 5 4 5 7 8 9 7 8 11 12
9 5 5 5 4 4 3 2 2 1 1 3 3 2 3 3 2 3 3 2 3 3 3 3 3 5 6 4 3 4 5 5 6 8 6 7 9 10 11 12 8 6 4 3 6 9 6 2 6 7 4 4 4 3 2 3 3 8 10 9 8 9 11 10 7 4 6 8 7 7 10 6 1 1 2 2 3 5 5 6 7 6 6 7 7 7 10 11
6 5 5 3 3 3 1 1 1 1 2 2 3 4 5 3 4 6 4 3 3 2 2 3 3 5 5 4 5 6 5 5 7 9 8 7 5 6 12 16 10 5 5 5 4 5 6 5 7 7 5 5 5 4 5 4 3 5 9 11 12 13 14 10 4 4 6 8 8 8 9 6 2 2 2 2 1 1 2 4 5 2 3 6 7 6 9 10
4 3 5 3 2 3 0 1 1 1 1 2 4 5 4 4 6 10 9 7 7 5 3 4 4 5 4 2 3 5 5 6 6 5 6 5 3 2 6 11 10 8 9 12 9 4 4 6 8 8 8 7 7 6 5 6 6 5 6 10 14 17 17 12 7 8 9 10 11 10 8 7 5 5 6 4 2 1 1 1 2 1 1 7 9 7 6 7
2 1 3 3 1 3 2 0 0 1 1 2 4 3 3 2 4 9 10 9 10 10 7 4 3 3 4 4 4 5 7 9 7 5 5 5 2 1 2 5 8 10 11 15 14 5 2 6 10 11 11 10 9 6 4 5 7 7 8 11 13 16 17 13 9 9 9 8 10 11 10 12 14 13 12 10 10 10 5 3 4 5 3 8 10 8 5 3
2 0 1 2 1 2 3 3 3 2 2 2 2 1 3 4 4 5 6 6 8 8 6 4 4 5 5 6 7 8 9 9 9 8 9 8 5 4 5 6 8 12 13 13 13 7 2 6 11 14 16 15 13 9 6 8 10 11 11 13 13 15 16 15 12 11 10 9 11 11 12 16 20 19 16 12 13 13 8 6 7 7 6 8 8 7 6 3
3 1 0 1 1 1 1 2 4 5 5 4 2 1 5 8 8 5 4 5 5 5 5 3 5 9 11 9 8 8 8 8 8 7 6 7 7 6 7 7 9 14 14 8 8 6 2 5 9 13 16 17 15 10 5 6 9 9 11 14 14 15 16 16 16 16 13 11 11 10 13 17 19 20 17 14 14 14 10 8 8 7 7 6 3 4 6 6
3 2 0 1 3 4 5 6 5 6 8 6 4 4 6 8 9 8 5 4 4 6 8 6 7 10 11 11 11 10 9 8 7 5 4 6 7 5 6 5 6 10 9 5 4 5 2 5 7 11 16 17 16 13 8 7 7 7 10 13 14 15 17 16 17 17 15 13 12 13 15 17 17 18 18 13 12 13 9 7 8 9 9 9 6 4 4 8
4 4 3 4 5 7 9 8 5 5 6 5 4 4 5 7 10 9 5 5 5 3 7 9 12 10 8 10 11 11 13 11 9 8 6 6 6 5 4 4 2 3 4 3 2 5 5 5 4 6 10 12 14 15 13 12 11 11 12 10 9 11 14 15 15 15 15 14 15 17 17 14 13 17 19 12 8 11 12 11 10 11 13 13 11 10 8 12
4 5 5 6 6 6 7 5 4 3 3 3 4 3 4 6 8 6 5 9 12 9 6 9 12 9 7 8 9 12 15 15 14 16 15 12 10 7 5 4 3 2 3 4 3 4 5 3 2 3 6 6 9 12 14 15 16 17 16 12 10 10 12 15 15 14 15 15 16 17 15 12 13 17 18 12 9 11 15 16 17 19 23 20 14 13 12 13
6 5 5 5 4 4 6 4 3 4 3 2 4 4 5 7 6 3 4 7 13 14 12 11 10 7 6 8 11 17 21 21 22 24 23 20 16 14 14 12 9 7 5 4 4 4 5 4 4 5 6 7 7 10 13 13 11 11 12 15 17 16 14 14 13 14 16 15 13 12 13 14 16 15 15 12 11 12 15 20 22 24 28 28 22 19 18 18
Wind_Direction
318 317 316 318 317 313 313 312 312 314 312 306 294 282 276 274 272 267 263 264 264 265 268 277 289 297 300 301 301 302 310 313 313 317 315 309 306 308 299 273 256 244 243 244 245 249 249 253 256 255 257 257 258 248 233 225 200 193 213 228 233 230 223 203 203 201 322 36 129 173 200 214 216 192 200 217 209 213 217 213 220 220 217 216 200 191 191 195
316 316 315 313 312 310 307 305 306 307 307 309 307 296 280 273 274 273 268 265 265 264 266 270 278 289 296 299 300 303 308 311 315 315 310 308 310 310 290 264 249 237 238 240 240 245 245 246 251 252 247 239 240 238 229 212 196 206 222 223 230 230 216 218 231 210 220 271 120 194 213 219 225 187 195 216 206 201 215 215 220 230 225 222 215 203 198 199
313 312 311 310 308 304 302 301 301 300 301 302 305 305 293 278 273 276 277 272 267 266 266 266 272 282 290 294 300 306 310 313 314 307 301 312 320 316 291 263 246 232 229 233 232 234 238 237 237 233 223 221 221 222 225 205 201 215 217 227 232 223 229 238 235 229 227 249 284 239 216 219 226 198 192 218 216 202 224 220 210 224 228 224 219 213 210 204
315 313 311 310 308 305 303 302 299 297 297 297 299 302 299 286 275 275 279 279 273 270 267 266 268 276 285 291 298 308 314 316 306 284 336 4 350 337 315 298 274 243 228 228 227 226 229 228 228 211 202 211 207 214 226 205 198 201 205 233 236 204 233 238 228 233 230 237 269 222 189 217 219 205 198 209 217 218 231 231 221 224 226 224 222 217 216 212
318 316 314 310 309 308 306 303 300 299 296 296 298 299 298 292 280 275 277 279 276 273 269 266 267 271 280 285 293 302 311 315 242 137 77 61 40 26 26 30 13 332 244 230 226 222 222 217 211 198 201 207 190 206 222 208 207 207 214 238 244 193 229 239 227 235 231 227 237 197 197 207 195 205 208 208 222 231 232 235 237 236 232 232 228 220 218 217
319 318 317 312 309 308 307 305 302 300 297 296 298 298 297 294 285 277 276 277 277 275 270 267 265 267 274 280 286 289 287 279 148 121 88 66 38 25 23 20 17 8 323 240 230 219 218 209 202 193 196 207 197 205 209 201 218 234 226 233 242 223 233 244 237 239 226 211 219 208 210 191 181 210 211 215 229 236 241 247 250 244 240 241 236 225 222 220
321 321 319 316 312 309 309 306 303 301 300 297 297 299 298 295 290 280 274 275 277 277 274 270 265 262 267 273 277 274 251 244 200 158 109 328 317 326 345 355 2 4 3 279 235 219 214 207 206 186 179 203 202 206 212 217 235 245 239 227 237 238 240 254 271 243 217 205 218 207 209 196 199 218 209 223 233 236 243 250 249 243 244 242 234 229 229 228
323 323 321 320 317 315 313 310 306 303 301 300 299 299 298 296 291 284 276 274 276 276 276 272 265 260 262 266 270 268 249 241 230 235 271 292 296 299 298 306 322 341 356 342 237 220 217 213 212 190 194 220 186 191 201 232 232 234 245 252 256 252 246 257 272 249 217 214 221 208 233 223 215 226 226 235 238 238 241 243 240 240 253 252 239 233 233 232
328 326 323 320 318 318 317 315 311 305 302 302 303 301 298 295 290 286 278 273 274 274 274 272 266 260 259 262 262 262 252 249 251 258 271 280 292 313 304 290 286 301 336 341 298 217 217 219 218 206 221 231 192 193 176 213 220 212 240 273 274 265 259 262 265 252 232 229 229 234 252 245 223 232 250 246 242 243 243 242 241 242 252 258 249 238 235 235
331 329 326 322 319 319 318 317 315 310 307 305 306 304 300 296 290 285 279 275 271 270 272 270 266 260 258 257 255 258 254 253 262 268 269 262 282 343 346 327 303 292 307 325 336 229 220 225 227 222 243 239 209 209 180 206 230 178 252 286 276 271 269 262 258 255 248 244 237 242 257 249 211 221 245 245 238 238 240 241 241 241 247 252 248 236 232 235
330 329 328 324 320 319 317 317 316 314 310 307 306 306 303 299 293 287 282 275 269 267 267 265 265 261 259 254 246 244 240 239 244 230 223 239 283 318 320 328 330 320 305 296 313 287 236 229 224 217 233 225 207 215 220 232 259 265 278 284 271 271 267 247 240 248 247 250 236 233 256 252 175 210 239 242 238 233 232 237 238 236 238 241 239 228 227 232
324 325 325 322 320 318 317 316 316 315 311 308 306 304 303 300 295 290 284 276 268 263 261 260 262 261 262 258 249 245 239 236 241 236 237 257 279 289 291 298 308 314 312 292 281 302 246 227 211 213 234 220 198 192 233 237 239 242 253 266 262 266 264 242 231 233 223 241 229 215 253 245 201 213 238 242 247 244 230 230 230 227 228 228 227 221 223 228
320 322 321 318 318 315 315 314 313 313 311 308 306 303 302 299 296 291 284 278 269 263 261 259 261 264 265 261 258 254 247 245 252 256 255 260 271 277 282 290 296 298 302 294 277 261 239 226 208 217 240 233 213 209 254 241 217 212 211 248 259 261 258 237 223 213 209 228 205 183 242 242 215 214 229 239 240 239 231 227 225 222 222 222 224 223 223 225
322 322 317 314 313 310 309 308 308 309 308 307 306 303 300 296 293 289 284 281 274 268 266 265 264 266 266 262 262 260 251 248 252 255 257 260 267 276 278 281 287 287 289 288 278 248 231 231 214 220 233 231 246 291 277 265 216 197 187 220 236 247 244 209 196 186 201 219 192 197 244 246 225 208 217 231 232 228 229 229 227 223 223 224 227 229 229 228
330 328 324 317 312 309 305 302 302 303 304 302 301 300 298 295 295 294 290 284 278 273 273 273 269 267 270 271 271 268 259 252 251 251 253 259 265 272 274 276 282 282 282 284 272 237 221 230 220 218 224 226 242 270 251 224 224 195 195 213 215 230 231 178 178 183 202 204 181 203 243 244 238 208 205 221 225 221 226 231 230 227 227 228 230 231 231 231
339 337 336 330 323 319 312 305 300 298 298 297 297 294 292 292 293 294 294 289 281 276 276 274 270 267 272 276 271 268 262 253 253 255 254 257 260 262 264 266 268 263 271 282 266 231 221 232 231 222 213 211 221 233 235 229 227 210 217 225 204 213 228 208 174 192 211 206 185 207 233 235 231 214 205 216 219 216 224 231 231 231 232 233 234 233 232 232
339 339 339 336 333 329 323 316 307 300 295 291 289 286 286 289 290 291 294 291 283 277 273 270 271 267 263 268 267 262 259 250 246 248 248 252 254 255 257 257 256 255 263 273 262 235 221 229 236 224 210 208 211 204 218 227 223 210 212 227 219 209 221 218 168 185 214 222 209 212 229 237 219 200 214 219 218 214 221 230 231 231 233 235 237 238 237 237
329 332 333 333 332 330 328 325 316 306 294 282 275 276 282 287 287 286 286 287 283 279 273 260 254 265 260 252 253 253 255 255 241 236 241 242 243 248 252 251 250 249 249 259 253 229 215 223 231 225 208 210 208 197 209 221 222 217 207 217 224 213 222 229 211 150 198 225 233 217 226 236 235 243 239 228 221 217 221 228 232 232 232 234 236 239 241 241
319 324 327 328 329 327 326 326 323 312 297 282 269 272 282 284 284 281 275 272 261 253 262 234 213 222 266 220 268 266 255 250 242 242 246 238 233 243 244 239 233 224 217 226 226 206 200 215 228 226 214 210 208 206 212 219 5 244 222 220 227 224 227 226 210 114 193 218 230 225 232 236 230 231 239 236 223 220 225 228 231 233 233 232 233 237 240 241
312 316 321 324 326 325 323 323 325 315 300 290 274 270 274 272 279 279 262 252 245 243 250 244 228 232 243 274 324 344 340 262 240 240 248 243 237 243 232 213 206 206 210 216 209 195 197 212 225 223 220 215 213 215 221 233 291 313 270 237 233 235 233 208 188 172 192 228 231 229 237 242 235 224 229 236 227 217 226 231 233 233 233 232 233 237 238 240
305 307 314 321 322 321 320 320 323 314 301 292 273 256 249 235 240 280 270 263 262 256 254 255 251 247 247 254 262 266 311 326 270 250 259 249 233 231 210 189 195 208 213 214 210 198 203 218 228 225 225 223 220 220 224 234 242 256 272 256 242 238 239 217 193 181 158 230 242 235 241 245 243 230 224 234 236 227 224 229 235 234 234 235 235 238 240 242
302 303 309 316 317 316 316 317 318 313 301 289 270 247 239 235 241 266 287 285 276 269 264 260 257 253 251 250 247 249 260 279 278 270 272 251 218 217 197 182 205 220 204 200 208 214 211 227 232 228 228 230 229 222 222 230 235 241 247 251 254 239 238 228 195 183 160 217 245 241 247 252 248 238 225 231 242 245 235 229 237 239 237 236 237 240 242 245
301 303 306 310 312 311 312 311 309 308 302 291 277 255 247 248 250 261 277 289 284 276 268 261 257 254 253 250 247 244 240 245 263 263 257 235 209 215 202 189 213 221 200 195 208 214 213 230 235 230 227 231 234 225 222 228 232 236 236 238 247 232 228 238 205 190 191 219 260 253 253 259 252 241 229 230 240 251 251 241 241 246 246 244 244 245 246 248
301 302 303 304 306 307 308 305 300 301 299 289 279 268 260 256 250 253 264 276 283 277 268 263 257 254 253 253 249 236 226 226 236 251 250 223 200 209 210 208 217 217 209 208 214 222 227 234 232 220 220 222 231 228 221 224 226 231 231 233 240 233 232 252 224 193 214 230 237 251 266 262 245 240 236 228 231 245 253 250 245 246 249 252 252 251 251 251
298 297 298 298 300 303 303 297 294 296 294 283 279 277 267 253 239 234 242 279 277 269 273 263 249 253 253 249 242 223 216 220 223 235 243 222 203 202 209 211 217 222 218 214 217 228 237 237 214 203 215 213 221 226 219 218 225 231 228 229 236 238 239 246 254 239 248 243 211 209 253 264 240 235 236 227 220 229 238 245 245 243 245 248 250 251 252 253
298 295 294 294 295 298 295 289 287 289 290 287 290 285 264 244 228 212 173 282 279 241 224 228 221 253 253 230 211 196 211 232 229 231 234 228 214 209 214 194 200 235 226 213 219 235 242 237 224 214 213 210 217 225 223 219 228 237 227 224 230 237 240 238 235 235 245 253 202 186 239 267 250 232 231 224 223 227 223 228 239 239 237 239 244 249 252 253
299 294 293 293 292 289 281 278 278 278 277 285 300 294 256 240 218 188 152 276 282 183 127 160 189 188 287 198 178 170 199 225 219 228 226 226 215 205 226 210 189 237 214 193 222 225 230 226 217 218 222 219 217 223 223 216 225 245 228 214 220 227 233 234 235 241 246 259 264 189 232 265 264 249 239 221 222 234 226 222 232 234 234 235 239 246 250 253
301 296 293 292 289 279 269 269 270 266 264 277 293 280 246 225 184 149 144 263 295 83 84 168 184 207 42 174 173 172 140 135 174 231 222 222 211 193 221 228 216 223 181 192 228 214 198 214 208 210 222 232 226 225 225 216 227 245 186 198 219 223 227 228 231 239 245 253 252 228 222 255 262 257 241 217 225 241 234 225 227 227 233 238 239 245 250 253
301 297 295 294 289 276 261 259 259 258 263 271 270 252 233 201 160 128 155 227 118 92 93 157 183 215 154 158 180 195 180 159 222 301 211 213 211 199 217 228 222 230 200 208 235 238 179 224 211 202 213 228 229 227 226 222 234 242 159 208 239 232 226 227 228 233 234 238 242 232 222 242 263 258 234 212 222 240 240 233 224 214 226 237 242 247 250 253
301 298 298 296 288 275 262 257 253 255 259 252 246 229 200 170 142 124 178 188 47 128 145 170 187 171 150 148 192 216 221 211 228 26 190 202 208 207 216 214 211 240 220 214 237 243 247 45 209 212 224 235 230 225 227 228 233 43 168 222 238 231 227 230 227 228 231 229 229 225 222 233 257 258 236 226 225 234 243 245 227 198 214 233 241 247 250 253
304 301 299 292 282 274 266 260 254 253 246 235 228 201 175 144 120 206 179 111 7 156 162 187 168 152 159 166 198 210 221 232 197 164 191 194 202 206 207 203 190 245 240 218 236 240 229 225 219 232 261 248 227 219 213 214 190 134 216 221 218 219 230 234 215 212 228 230 217 216 218 226 243 248 234 244 242 233 241 249 245 206 200 222 235 243 248 251
307 303 295 285 278 270 263 260 259 253 239 225 205 181 161 125 215 211 191 26 20 168 151 167 161 155 179 196 209 200 212 232 190 177 203 194 195 202 205 206 180 203 237 216 226 236 232 232 224 232 259 223 218 213 183 187 192 198 214 211 210 207 201 209 208 203 222 238 216 204 209 219 241 251 250 252 254 241 243 249 254 243 208 215 230 239 245 249
307 303 295 285 277 269 262 259 253 245 233 209 186 170 148 157 201 181 198 215 308 50 70 86 162 170 189 204 222 209 217 241 181 191 218 200 199 213 215 212 188 190 235 210 220 229 223 225 217 229 246 202 204 208 192 195 206 208 205 204 211 209 212 215 212 214 225 239 224 187 204 220 248 257 251 247 248 247 245 237 240 246 229 224 235 243 248 251
313 307 297 284 276 269 264 258 245 238 221 189 170 158 143 201 186 162 190 199 356 0 52 79 142 167 196 210 220 204 217 252 210 209 231 205 208 219 218 220 206 198 217 214 226 218 213 225 198 200 207 184 195 214 210 197 205 212 207 210 223 226 232 228 221 227 228 231 172 175 202 213 225 239 251 249 248 244 242 239 239 244 241 241 245 246 250 253
324 311 298 294 284 268 262 251 238 228 201 174 154 158 197 209 202 166 193 195 239 353 64 79 129 152 205 220 231 214 214 240 210 217 242 225 224 220 212 219 210 204 206 217 232 209 223 244 177 188 198 178 190 209 206 200 210 210 203 211 230 233 238 258 258 249 252 252 181 186 217 221 238 265 282 254 274 249 243 239 240 243 244 246 248 248 250 253
353 353 351 346 328 301 280 248 228 213 188 165 146 213 203 221 279 145 105 118 147 115 100 107 135 133 222 218 230 222 207 220 199 213 241 236 244 237 227 226 207 203 207 212 232 209 226 249 144 185 208 192 197 200 188 199 212 190 194 205 222 216 219 254 267 286 280 261 222 197 224 236 264 278 257 228 219 223 230 229 230 234 238 242 245 247 250 252
22 31 24 15 6 347 321 229 207 195 179 165 177 213 198 23 22 11 9 58 110 129 142 221 208 177 221 212 225 212 188 199 208 209 235 233 245 233 228 242 219 205 209 217 232 225 232 258 128 178 214 208 213 206 194 206 210 157 196 195 126 67 77 258 263 249 237 251 235 207 219 222 228 256 250 223 220 216 216 222 225 222 231 245 247 248 250 250
31 39 37 34 29 23 40 174 189 180 166 161 196 197 165 21 60 1 354 29 33 141 187 234 212 201 224 215 224 188 175 195 190 192 224 217 222 209 208 229 225 209 213 221 232 215 210 254 243 172 217 180 183 204 207 214 226 55 213 185 149 215 209 195 225 244 234 244 246 215 216 218 217 225 227 205 212 215 218 228 237 232 229 240 247 251 254 255
28 40 33 28 34 43 59 139 174 171 157 149 202 186 30 314 226 278 259 260 23 16 232 248 231 244 239 223 226 167 181 205 184 192 231 205 202 205 191 205 224 216 211 211 223 224 176 232 249 349 42 136 169 197 212 212 209 284 255 222 226 245 227 208 215 237 243 248 263 227 214 216 224 232 238 223 204 206 218 226 235 236 231 233 246 258 264 269
17 43 27 23 48 67 82 132 153 159 140 59 163 177 329 294 303 300 260 233 210 217 239 220 195 242 240 248 271 190 198 220 207 210 231 201 203 220 193 198 220 227 212 204 211 223 195 214 236 216 83 176 194 199 211 208 196 196 215 217 216 216 233 254 240 239 245 244 249 244 230 224 227 236 242 244 241 229 236 245 245 247 251 257 269 275 281 283
30 61 26 22 59 88 108 128 133 123 345 124 145 200 234 329 319 313 300 256 222 227 240 220 213 227 229 240 251 207 199 222 218 220 227 213 218 230 202 191 202 269 223 212 211 212 201 204 220 212 167 205 212 203 221 229 207 199 206 213 214 212 212 234 237 226 235 240 239 249 252 239 216 320 259 260 282 295 272 273 267 277 313 320 297 277 275 280
42 50 12 19 67 104 110 114 105 114 200 333 9 297 327 344 323 303 301 265 232 233 231 230 233 229 228 241 254 214 206 224 220 219 233 227 220 219 184 162 148 106 136 247 236 214 205 208 216 219 215 222 240 274 319 294 239 215 216 218 217 213 210 220 225 213 214 227 231 250 258 248 182 64 289 280 300 289 278 270 266 284 305 307 293 265 257 263
38 33 16 30 90 117 105 61 64 100 257 321 349 324 307 321 319 310 306 254 244 233 208 215 233 236 236 233 229 216 217 230 217 215 235 240 228 223 217 211 194 134 127 273 256 214 203 209 217 225 240 256 277 291 284 309 260 226 224 224 222 217 214 221 233 241 236 226 222 241 249 244 176 216 256 260 267 276 275 260 256 280 309 305 292 272 261 261
20 29 38 47 133 142 71 15 80 284 275 291 301 286 283 281 260 262 262 238 234 208 203 227 220 228 237 228 231 229 218 223 225 225 235 244 236 221 229 236 229 170 166 195 190 196 208 201 203 216 230 232 238 248 244 231 213 224 224 219 218 216 217 224 244 271 253 231 229 245 248 237 172 140 215 209 172 314 297 267 253 255 353 339 331 305 274 263
2 32 43 40 173 175 162 53 99 295 316 308 290 276 266 266 249 247 248 246 240 226 229 253 231 217 215 202 242 245 232 240 248 240 239 246 255 246 245 245 227 203 209 210 199 205 236 215 202 207 214 214 210 215 226 215 203 218 232 224 219 214 214 217 220 231 235 229 230 237 246 252 235 212 227 227 227 271 243 257 271 165 44 352 350 338 300 267
6 38 25 22 139 181 219 290 18 314 321 294 288 269 239 247 257 251 245 243 242 231 231 257 242 214 209 206 235 250 241 244 248 252 263 259 259 298 266 239 218 210 220 224 218 214 262 234 219 216 218 218 215 199 157 156 180 198 216 222 221 217 215 217 222 225 224 229 238 235 241 260 259 250 249 251 261 269 249 196 206 216 271 335 342 332 312 272
16 126 10 0 7 204 243 242 223 239 255 241 269 283 241 248 281 273 237 233 242 231 232 245 212 216 224 208 222 242 237 234 233 240 257 256 253 289 276 248 230 222 220 220 216 207 255 248 229 227 229 229 231 222 173 172 194 203 209 214 217 214 212 215 224 227 220 224 238 228 220 241 254 254 251 246 252 264 260 222 213 226 273 317 334 320 298 260
7 1 163 349 335 218 271 252 223 244 257 238 217 264 262 266 278 277 240 241 245 213 217 242 211 224 234 222 226 245 238 233 234 233 250 251 246 270 268 244 230 228 220 199 189 192 246 260 233 230 234 236 240 236 191 186 205 204 206 210 210 207 205 211 222 226 223 226 240 235 220 229 245 252 251 241 240 247 243 232 238 254 276 286 289 297 295 268
13 357 297 302 295 275 289 294 277 267 262 251 239 241 255 268 271 265 247 247 253 210 207 238 240 225 230 231 234 244 242 241 247 234 223 233 229 239 258 249 231 224 209 177 176 178 207 265 242 230 235 236 237 235 221 218 224 220 218 216 209 203 201 207 219 225 227 231 243 249 241 237 243 252 254 243 240 251 251 238 241 251 260 257 233 227 287 282
4 344 337 315 295 281 283 283 273 272 265 250 244 234 240 261 265 264 241 223 257 237 187 225 248 237 228 232 234 247 255 257 267 262 241 233 228 220 240 254 247 204 186 197 220 178 191 243 237 228 242 237 231 234 233 231 235 236 233 225 213 207 204 206 215 221 226 230 237 244 250 251 250 255 256 243 230 253 259 250 248 256 260 251 229 223 257 278
335 319 317 303 292 285 282 262 225 255 274 247 248 242 238 255 261 276 263 227 237 248 211 221 246 247 238 239 238 249 253 250 255 258 255 257 256 247 249 242 203 188 198 206 206 182 196 234 218 222 256 246 222 227 233 234 236 237 235 227 213 209 209 209 211 212 212 218 229 238 247 252 248 252 255 237 202 225 246 248 253 263 265 257 240 233 245 255
343 322 302 282 273 270 275 262 218 255 279 249 247 244 258 275 278 290 287 238 229 241 241 237 251 262 253 245 244 250 254 255 257 258 260 269 273 270 270 261 238 234 228 199 201 202 203 236 249 226 248 258 227 216 225 230 233 235 230 219 213 211 209 211 217 218 211 208 218 227 232 240 243 248 254 239 206 206 228 237 239 245 254 256 256 253 250 251